Location: Calimesa Mobile Home Ranch
(33.9736°N, 117.0370°W)
Time: 15:19:32
(UTC+00:00)

MOZHAYETS 4 - Visible Passes

Search period start: 08 September 2024 00:00
Search period end: 18 September 2024 00:00
Orbit: 651 x 668 km, 98.3° (Epoch: 08 September)

Date Brightness Start Highest point End Pass type
(mag) Time Alt. Az. Time Alt. Az. Time Alt. Az.
08 Sep 10.0 10:36:44 12° ESE 10:39:40 22° ENE 10:43:09 10° NNE visible
08 Sep 8.5 12:14:43 23° SW 12:16:19 29° W 12:20:17 10° NW visible
09 Sep 8.7 11:06:38 25° SE 11:08:53 46° ENE 11:13:13 10° N visible
09 Sep 9.4 12:44:38 12° WSW 12:45:54 13° W 12:48:08 10° WNW visible
10 Sep 7.5 11:36:33 40° S 11:38:11 81° WSW 11:42:44 10° NNW visible
11 Sep 10.3 10:28:27 11° ESE 10:31:03 18° ENE 10:34:04 10° NNE visible
11 Sep 8.2 12:06:26 31° SW 12:07:36 36° W 12:11:47 10° NNW visible
12 Sep 9.1 10:58:20 25° ESE 11:00:11 36° ENE 11:04:20 10° N visible
12 Sep 9.1 12:36:20 17° WSW 12:37:05 17° W 12:40:05 10° NW visible
13 Sep 7.7 11:28:14 49° SSE 11:29:25 79° ENE 11:33:58 10° N visible
14 Sep 10.6 10:20:08 10° E 10:22:21 14° ENE 10:24:42 10° NE visible
14 Sep 7.9 11:58:07 43° SW 11:58:46 46° W 12:03:08 10° NNW visible
15 Sep 9.5 10:50:01 24° ESE 10:51:25 28° ENE 10:55:17 10° NNE visible
15 Sep 8.8 12:28:00 22° W 12:28:12 22° W 12:31:42 10° NW visible
16 Sep 8.1 11:19:53 53° ESE 11:20:35 61° ENE 11:25:03 10° N visible
17 Sep 10.8 10:12:20 10° E 10:13:34 11° ENE 10:14:48 10° NE visible
17 Sep 7.6 11:49:46 60° WSW 11:49:51 60° W 11:54:20 10° NNW visible
